Weather History for Puerto Vallarta, Mexico

Change the Weather History Date:

Thursday, October 3, 2013

  Actual Average Record
Temperature  
Mean Temperature 82 °F -  
Max Temperature 89 °F 87 °F - ()
Min Temperature 75 °F 72 °F - ()
Cooling Degree Days 17    
Growing Degree Days 32 (Base 50)    
Moisture  
Dew Point 74 °F    
Average Humidity 75    
Maximum Humidity 89    
Minimum Humidity 55    
Precipitation  
Precipitation 0.00 in - - ()
Sea Level Pressure  
Sea Level Pressure 29.80 in    
Wind  
Wind Speed 2 mph ()    
Max Wind Speed 14 mph    
Max Gust Speed -    
Visibility 13.0 miles    
Events      
T = Trace of Precipitation, MM = Missing Value Source: Averaged Metar Reports

Daily Weather History Graph

Daily Weather History Graph

Search for Another Location

Airport:

Trip Planner

Search our weather history database for the weather conditions in past years. The results will help you decide how hot, cold, wet, or windy it might be!

Date:

Astronomy

Oct. 03, 2013 Rise Set
Actual Time 7:52 AM CDT 7:46 PM CDT
Civil Twilight 7:30 AM CDT 8:08 PM CDT
Nautical Twilight 7:04 AM CDT 8:34 PM CDT
Astronomical Twilight 6:39 AM CDT 9:00 PM CDT
Moon 6:35 AM CDT (10/3) 6:54 PM CDT (10/3)
Length of Visible Light 12h 38m
Length of Day
11h 54m
Waning Crescent, 2% of the Moon is Illuminated
Oct 3
Waning Crescent
Oct 4
New
Oct 11
First Quarter
Oct 18
Full
Oct 26
Last Quarter

Hourly Weather History & Observations

Time (CDT) Temp. Heat Index Dew Point Humidity Pressure Visibility Wind Dir Wind Speed Gust Speed Precip Events Conditions
12:49 AM 78.8 °F - 75.2 °F 89% 29.82 in 10.0 mi Calm Calm - N/A   Clear
1:49 AM 78.8 °F - 75.2 °F 89% 29.83 in 10.0 mi Calm Calm - N/A   Clear
2:49 AM 77.0 °F - 73.4 °F 89% 29.82 in 10.0 mi Calm Calm - N/A   Scattered Clouds
3:49 AM 77.0 °F - 73.4 °F 89% 29.79 in 10.0 mi Calm Calm - N/A   Scattered Clouds
4:49 AM 77.0 °F - 71.6 °F 83% 29.80 in 10.0 mi Calm Calm - N/A   Clear
5:49 AM 77.0 °F - 73.4 °F 89% 29.80 in 10.0 mi Calm Calm - N/A   Clear
6:49 AM 77.0 °F - 73.4 °F 89% 29.80 in 12.0 mi Calm Calm - N/A   Clear
7:45 AM 75.2 °F - 71.6 °F 89% 29.81 in 12.0 mi North 3.5 mph - N/A   Scattered Clouds
8:45 AM 77.0 °F - 73.4 °F 89% 29.82 in 15.0 mi Calm Calm - N/A   Clear
9:43 AM 80.6 °F 85.4 °F 73.4 °F 79% 29.84 in 15.0 mi NE 3.5 mph - N/A   Clear
10:46 AM 86.0 °F 93.4 °F 73.4 °F 66% 29.84 in 15.0 mi Calm Calm - N/A   Clear
12:39 PM 87.8 °F 95.6 °F 73.4 °F 62% 29.84 in 15.0 mi Calm Calm - N/A   Scattered Clouds
12:50 PM 89.6 °F 96.2 °F 71.6 °F 55% 29.83 in 15.0 mi South 6.9 mph - N/A   Scattered Clouds
1:43 PM 87.8 °F 93.8 °F 71.6 °F 58% 29.83 in 15.0 mi South 9.2 mph - N/A   Scattered Clouds
2:49 PM 87.8 °F 97.6 °F 75.2 °F 66% 29.80 in 15.0 mi South 6.9 mph - N/A   Scattered Clouds
3:46 PM 87.8 °F 97.6 °F 75.2 °F 66% 29.78 in 15.0 mi SW 13.8 mph - N/A   Scattered Clouds
4:46 PM 87.8 °F 97.6 °F 75.2 °F 66% 29.76 in 15.0 mi NNW 11.5 mph - N/A   Scattered Clouds
5:50 PM 87.8 °F 97.6 °F 75.2 °F 66% 29.76 in 15.0 mi SSW 10.4 mph - N/A   Scattered Clouds
6:50 PM 87.8 °F 97.6 °F 75.2 °F 66% 29.75 in 15.0 mi SW 6.9 mph - N/A   Mostly Cloudy
7:48 PM 86.0 °F 93.4 °F 73.4 °F 66% 29.77 in 15.0 mi SW 4.6 mph - N/A   Mostly Cloudy
8:47 PM 86.0 °F 93.4 °F 73.4 °F 66% 29.78 in 10.0 mi Calm Calm - N/A   Mostly Cloudy
9:45 PM 84.2 °F 92.3 °F 75.2 °F 74% 29.79 in 12.0 mi NW 2.3 mph - N/A   Overcast
11:45 PM 82.4 °F 89.5 °F 75.2 °F 79% 29.82 in 12.0 mi Calm Calm - N/A   Overcast